Location: Saint-Palais-sur-Mer
(45.6429°N, 1.0859°W)
Time: 03:33:16
(UTC+02:00)

METEOR M2 - Pass Details

Date: 25 April 2024
Orbit: 817 x 827 km, 98.4° (Epoch: 27 May)

Event Time Altitude Azimuth Distance (km) Brightness Sun altitude
Rises 06:06:44 0° 33° (NNE) 3,358 ? -9.4°
Reaches altitude 10° 06:10:47 10° 64° (ENE) 2,417 ? -8.8°
Maximum altitude 06:12:50 12° 86° (E) 2,264 ? -8.5°
Drops below altitude 10° 06:14:52 10° 109° (ESE) 2,410 ? -8.2°
Sets 06:18:52 0° 139° (SE) 3,334 ? -7.6°
